Regional Weather Roundup
Issued by NWS Cleveland, OH

Home | Current Version | Previous Version | Graphics & Text | Print | Product List | Glossary On
Versions: 1 2 3 4 5 6 7 8 9 10 11 12 13 14 15 16 17 18 19 20 21 22 23 24 25 26 27 28 29 30 31 32 33 34 35 36 37 38 39 40 41 42 43 44 45 46 47 48 49 50
000
ASUS41 KCLE 152110
RWRCLE
OHIO REGIONAL WEATHER ROUNDUP
NATIONAL WEATHER SERVICE CLEVELAND, OH
500 PM EDT MON AUG 15 2022

NOTE: "FAIR" INDICATES FEW OR NO CLOUDS BELOW 12,000 FEET WITH NO
SIGNIFICANT WEATHER AND/OR OBSTRUCTIONS TO VISIBILITY.

OHZ001>008-015>018-024>027-034-035-043-044-152200-
   NORTHWEST OHIO

CITY           SKY/WX    TMP DP  RH WIND       PRES   REMARKS
DEFIANCE       MOSUNNY   79  58  48 NE7       30.00S
FINDLAY        SUNNY     80  61  52 NE12      29.98S
TOLEDO EXPRESS CLOUDY    83  55  38 NE9       29.99S
TOLEDO EXEC    MOSUNNY   79  60  52 E8        30.00S
LIMA           MOSUNNY   78  56  46 NE12      29.99S
$$

OHZ009>014-019>023-028>033-038-089-152200-
   NORTHEAST OHIO

CITY           SKY/WX    TMP DP  RH WIND       PRES   REMARKS
CLE-HOPKINS    PTSUNNY   78  62  57 NE22      29.95S
CLE-LAKEFRONT  MOSUNNY   76  64  66 NE17G25   29.94F
CUY CO. ARPT   MOSUNNY   75  63  64 N17       29.96S
LORAIN-ELYRIA  MOSUNNY   75  60  59 NE9       29.97S
ASHTABULA      PTSUNNY   75  62  64 E8        29.98R
AKRON-CANTON   PTSUNNY   80  58  46 NE14G23   29.94F
WOOSTER        CLOUDY    70  67  90 CALM      29.96S
MANSFIELD      CLOUDY    75  64  68 N12       29.97F
YOUNGSTOWN     PTSUNNY   75  59  57 E12       29.97F
$$

OHZ042-051>053-060>062-070>072-077>081-152200-
  SOUTHWEST OHIO

CITY           SKY/WX    TMP DP  RH WIND       PRES   REMARKS
CINC-COVINGTON PTSUNNY   80  62  54 N8        29.94F
CINC-LUNKEN    CLOUDY    79  62  56 NE7       29.94S
HAMILTON       PTSUNNY   82  61  48 N12       29.95F
DAYTON         CLOUDY    79  61  53 N15       29.98S
WRIGHT-PAT AFB PTSUNNY   77  60  55 N9        29.93R
DAYTON GENERAL PTSUNNY   79  59  50 N12       29.95F
WILMINGTON     MOSUNNY   79  58  48 N10       29.95S
$$

OHZ036-037-039>041-045>050-054>059-063>069-073>076-082>088-152200-
  CENTRAL AND SOUTHEAST OHIO

CITY           SKY/WX    TMP DP  RH WIND       PRES   REMARKS
COLUMBUS       PTSUNNY   79  61  53 N7        29.92F
OSU AIRPORT    PTSUNNY   81  60  48 NE15G22   29.94F
BOLTON FIELD   PTSUNNY   77  61  57 N16       29.95F
RICKENBACK AFB MOSUNNY   80  60  49 N8G17     29.92F
NEWARK         PTSUNNY   81  61  50 E8        29.92F
MARION         MOSUNNY   78  62  57 N16       29.96F
LANCASTER      SUNNY     79  60  52 NE8       29.93F
ZANESVILLE     MOSUNNY   78  60  53 E8        29.92F
NEW PHILLY     NOT AVBL
$$



USA.gov is the U.S. government's official web portal to all federal, state and local government web resources and services.